Regional Weather Roundup
Issued by NWS

Home | Current Version | Previous Version | Graphics & Text | Print | Product List | Glossary On
Versions: 1 2 3 4 5 6 7 8 9 10 11 12 13 14 15 16 17 18 19 20 21 22 23 24 25 26 27 28 29 30 31 32 33 34 35 36 37 38 39 40 41 42 43 44 45 46 47 48 49 50
000
ASUS43 KFSD 222310
RWRSD

WEATHER ROUNDUP FOR SOUTH DAKOTA
NATIONAL WEATHER SERVICE SIOUX FALLS SD
600 PM CDT FRI MAY 22 2015

NOTE: "FAIR" INDICATES FEW OR NO CLOUDS BELOW 12,000 FEET WITH NO
SIGNIFICANT WEATHER AND/OR OBSTRUCTIONS TO VISIBILITY.


SDZ001>005-009-010-012>017-230000-
NORTHWEST AND NORTH CENTRAL SOUTH DAKOTA

CITY           SKY/WX    TMP DP  RH WIND       PRES   REMARKS
BUFFALO          N/A     64  44  48 S20       29.98S
FAITH            N/A     66  33  29 SE18G28   30.07S
MOBRIDGE       PTSUNNY   74  40  29 S21       30.06F
$$

SDZ012>016-024>037-041>051-057-063-072>074-230000-
SOUTHWEST AND SOUTH CENTRAL SOUTH DAKOTA

CITY           SKY/WX    TMP DP  RH WIND       PRES   REMARKS
RAPID CTY ARPT CLOUDY    59  42  53 S16       30.06F
PIERRE         CLOUDY    66  38  35 S20G26    30.10R
CUSTER         CLOUDY    46  39  76 SE9       30.08F
ELLSWORTH AFB  CLOUDY    60  42  50 SE17      30.05F
PHILIP         CLOUDY    63  41  44 S20G25    30.09R
PINE RIDGE     CLOUDY    50  42  74 SE15      30.09S
SPEARFISH      PTSUNNY   57  43  58 SE12G18   30.05S
WINNER         CLOUDY    59  41  51 S23       30.16R
$$

SDZ004>011-016>023-039-040-230000-
NORTHEAST SOUTH DAKOTA

CITY           SKY/WX    TMP DP  RH WIND       PRES   REMARKS
ABERDEEN       CLOUDY    76  37  24 S8        30.10F
WATERTOWN      CLOUDY    73  36  25 SE7       30.13F
BROOKINGS      CLOUDY    73  34  23 S8        30.14F
SISSETON         N/A     74  25  16 VRB3      30.12F
$$

SDZ017-020-022-023-036>040-048>070-230000-
SOUTHEAST SOUTH DAKOTA

CITY           SKY/WX    TMP DP  RH WIND       PRES   REMARKS
SIOUX FALLS    CLOUDY    69  40  34 S12       30.15S
HURON          CLOUDY    71  38  29 S15G21    30.12S
CHAMBERLAIN    CLOUDY    65  43  45 S30G36    30.14S
MITCHELL       CLOUDY    69  40  34 SW20G28   30.14S
YANKTON        CLOUDY    63  39  42 S21G30    30.19R
$$

ABBREVIATIONS USED IN REMARKS
   TC - TEMPERATURE IN CELSIUS
  WCI - WIND CHILL INDEX
   HX - HEAT INDEX
  VSB - VISIBILITY




USA.gov is the U.S. government's official web portal to all federal, state and local government web resources and services.